Content
SEND FEEDBACK

Daily
Averages
Monthly
Summary
United States of America

NEVADA CITY, CALIFORNIA


Home > North America > United States > California
Elevation: 2934 feet     Latitude: 39 18N     Longitude: 121 00W

WEATHER
 
SELECT A DAY
Number of Records: 60,867;   Date Range: 9/21/11 - 8/18/14
 
SHARE

PRINT THIS DATA

[ ← Previous Day ]
WEATHER ALMANAC - JANUARY 16, 2013
[ Next Day → ]
[ °C ]   °F
Weather ElementAverageHighLow
Temperature49.4 °F57.2 °F (2:00 pm)39.2 °F (6:15 am)
Dewpoint18.8 °F30.2 °F (5:00 pm)-2.2 °F (11:00 pm)
Humidity31.8 %57 % (8:00 pm)9 % (11:00 pm)
Barometer30.34 in30.40 in (2:40 am)30.27 in (11:40 pm)
Wind Speed0.8 mph6.9 mph (11:00 pm)
Weather ElementAverage
Visibility10 mi
Wind DirectionNNE (28.8 °)

Weather ElementTotal
Precipitation---
Heating Degree Days16.8 (Base 65)
Averaged from 67 records on January 16, 2013
WEATHER CONDITIONS BREAKOUT
WIND DIRECTION BREAKOUT
WEATHER BY HOUR - JANUARY 16, 2013
[ °C ]   °F
Local TimeTemperatureDewpointHumidityBarometerVisibilityWind DirectionWind SpeedGust SpeedPrecipitationEventsConditions
12:20 AM50.0 °F17.6 °F28 %30.39 in10.0 miCalmClear
12:40 AM51.8 °F15.8 °F24 %30.39 in10.0 miCalmClear
1:20 AM51.8 °F15.8 °F24 %30.39 in10.0 miCalmClear
1:40 AM50.0 °F17.6 °F28 %30.39 in10.0 miCalmClear
2:00 AM48.2 °F17.6 °F30 %30.39 in10.0 miCalmClear
2:20 AM48.2 °F17.6 °F30 %30.39 in10.0 miCalmClear
2:40 AM46.4 °F15.8 °F29 %30.40 in10.0 miCalmClear
3:00 AM48.2 °F15.8 °F27 %30.40 in10.0 miCalmClear
3:20 AM50.0 °F14.0 °F24 %30.39 in10.0 miCalmClear
3:40 AM50.0 °F12.2 °F22 %30.39 in10.0 miCalmClear
4:00 AM55.4 °F10.4 °F17 %30.39 in10.0 miEast (80°)3.5 mphClear
4:20 AM48.2 °F14.0 °F25 %30.38 in10.0 miNorth (10°)4.6 mphClear
4:40 AM53.6 °F8.6 °F16 %30.37 in10.0 miNE (50°)4.6 mphClear
5:00 AM53.6 °F10.4 °F18 %30.37 in10.0 miCalmClear
5:20 AM50.0 °F10.4 °F20 %30.37 in10.0 miCalmClear
5:40 AM48.2 °F10.4 °F22 %30.36 in10.0 miCalmClear
6:00 AM41.0 °F17.6 °F39 %30.36 in10.0 miSSE (160°)5.8 mphClear
6:15 AM39.2 °F17.6 °F42 %30.37 in10.0 miCalmClear
6:40 AM42.8 °F15.8 °F34 %30.37 in10.0 miCalmClear
7:00 AM41.0 °F15.8 °F36 %30.37 in10.0 miCalmClear
7:15 AM41.0 °F15.8 °F36 %30.37 in10.0 miCalmClear
7:40 AM44.6 °F14.0 °F29 %30.37 in10.0 miCalmClear
8:00 AM41.0 °F15.8 °F36 %30.38 in10.0 miCalmClear
8:20 AM42.8 °F15.8 °F34 %30.39 in10.0 miCalmClear
8:40 AM44.6 °F17.6 °F34 %30.40 in10.0 miCalmClear
9:00 AM46.4 °F17.6 °F32 %30.40 in10.0 miSSE (160°)3.5 mphClear
9:20 AM46.4 °F19.4 °F34 %30.40 in10.0 miSSE (150°)5.8 mphClear
9:40 AM48.2 °F21.2 °F34 %30.40 in10.0 miCalmClear
10:00 AM48.2 °F23.0 °F37 %30.40 in10.0 miSSE (160°)3.5 mphClear
10:20 AM48.2 °F23.0 °F37 %30.39 in10.0 miCalmClear
10:40 AM51.8 °F23.0 °F33 %30.39 in10.0 miCalmClear
11:00 AM53.6 °F24.8 °F33 %30.38 in10.0 miCalmClear
11:20 AM53.6 °F26.6 °F35 %30.37 in10.0 miCalmClear
12:00 PM53.6 °F24.8 °F33 %30.35 in10.0 miWNW (300°)3.5 mphClear
12:20 PM53.6 °F23.0 °F30 %30.34 in10.0 miCalmClear
12:40 PM53.6 °F23.0 °F30 %30.33 in10.0 miWNW (290°)3.5 mphClear
1:00 PM55.4 °F23.0 °F29 %30.32 in10.0 miCalmClear
1:40 PM55.4 °F24.8 °F31 %30.31 in10.0 miCalmClear
2:00 PM57.2 °F24.8 °F29 %30.31 in10.0 miCalmClear
2:20 PM57.2 °F24.8 °F29 %30.30 in10.0 miCalmClear
3:00 PM57.2 °F26.6 °F31 %30.30 in10.0 miWNW (300°)3.5 mphClear
3:20 PM55.4 °F24.8 °F31 %30.30 in10.0 miCalmClear
3:40 PM55.4 °F24.8 °F31 %30.30 in10.0 miCalmClear
4:00 PM55.4 °F26.6 °F33 %30.29 in10.0 miCalmClear
4:20 PM55.4 °F26.6 °F33 %30.30 in9.0 miCalmClear
4:40 PM55.4 °F28.4 °F36 %30.29 in10.0 miCalmClear
5:00 PM51.8 °F30.2 °F44 %30.29 in10.0 miCalmClear
5:20 PM50.0 °F28.4 °F43 %30.29 in10.0 miCalmClear
5:35 PM48.2 °F28.4 °F46 %30.29 in10.0 miCalmClear
5:55 PM46.4 °F28.4 °F50 %30.29 in10.0 miCalmClear
6:20 PM46.4 °F26.6 °F46 %30.29 in10.0 miCalmClear
6:40 PM44.6 °F28.4 °F53 %30.30 in10.0 miCalmClear
7:00 PM44.6 °F28.4 °F53 %30.30 in10.0 miCalmClear
7:20 PM42.8 °F26.6 °F53 %30.30 in10.0 miCalmClear
7:40 PM44.6 °F26.6 °F49 %30.30 in10.0 miCalmClear
8:00 PM42.8 °F28.4 °F57 %30.30 in10.0 miCalmClear
8:20 PM44.6 °F26.6 °F49 %30.29 in10.0 miCalmClear
8:40 PM42.8 °F24.8 °F49 %30.29 in10.0 miCalmClear
9:00 PM48.2 °F17.6 °F30 %30.28 in10.0 miCalmClear
9:20 PM51.8 °F1.4 °F13 %30.28 in10.0 miEast (80°)4.6 mphClear
9:40 PM50.0 °F14.0 °F24 %30.28 in10.0 miCalmClear
10:00 PM51.8 °F6.8 °F16 %30.28 in10.0 miCalmClear
10:20 PM53.6 °F-0.4 °F11 %30.28 in10.0 miCalmClear
10:40 PM53.6 °F-0.4 °F11 %30.28 in10.0 miEast (100°)3.5 mphClear
11:00 PM55.4 °F-2.2 °F9 %30.28 in10.0 miEast (90°)6.9 mphClear
11:20 PM48.2 °F8.6 °F20 %30.28 in10.0 miCalmClear
11:40 PM48.2 °F10.4 °F22 %30.27 in10.0 miCalmClear
Hourly data recorded from KGOO, located miles away from Nevada City, California







STORIES FROM OUR PARTNERS